FW7722 Weather Reports


Display with metric or nautical units.
time (UTC)temp
F
wind
direction
speed
MPH
gust
MPH
rain 1hr
in
rain 24hr
in
rain mn
in
humidity
%
barometer
mb
20260901005917 69 22 0.0 0.0 0.00 0.00 0.00 93 1018.1
20260901005412 70 22 0.0 0.0 0.00 0.00 0.00 92 1018.1
20260901004907 70 22 0.0 0.0 0.00 0.00 0.00 92 1018.0
20260901004406 70 22 0.0 0.0 0.00 0.00 0.00 92 1018.1
20260901003902 70 22 0.0 0.0 0.00 0.00 0.00 91 1018.2
20260901003356 70 22 0.0 0.0 0.00 0.00 0.00 91 1017.9
20260901002855 70 22 0.0 0.0 0.00 0.00 0.00 91 1017.9
20260901002354 71 22 0.0 0.0 0.00 0.00 0.00 90 1018.0
20260901001849 71 22 0.0 0.0 0.00 0.00 0.00 90 1017.9
20260901001345 71 22 0.0 0.0 0.00 0.00 0.00 89 1018.0
20260901000840 71 22 0.0 0.0 0.00 0.00 0.00 89 1017.7
20260901000336 71 22 0.0 0.0 0.00 0.00 0.00 89 1017.8
20260831235833 71 22 0.0 0.0 0.00 0.00 0.00 89 1017.8
20260831235330 71 22 0.0 0.0 0.00 0.00 0.00 89 1017.7
20260831234825 72 22 0.0 0.0 0.00 0.00 0.00 88 1017.8
20260831234324 72 22 0.0 0.0 0.00 0.00 0.00 88 1017.6
20260831233820 72 22 0.0 0.0 0.00 0.00 0.00 88 1017.6
20260831233315 72 22 0.0 0.0 0.00 0.00 0.00 87 1017.5
20260831232810 73 22 0.0 0.0 0.00 0.00 0.00 87 1017.6
20260831232307 73 22 0.0 0.0 0.00 0.00 0.00 85 1017.6
20260831231803 73 22 0.0 0.0 0.00 0.00 0.00 83 1017.7
20260831231259 74 22 0.0 0.0 0.00 0.00 0.00 84 1017.9
20260831230753 74 22 0.0 0.0 0.00 0.00 0.00 82 1018.1
20260831230248 74 22 0.0 0.0 0.00 0.00 0.00 82 1018.0
20260831225747 75 22 0.0 0.0 0.00 0.00 0.00 81 1018.0
20260831225243 75 22 0.0 0.0 0.00 0.00 0.00 80 1018.1
20260831224738 75 22 0.0 0.0 0.00 0.00 0.00 80 1018.1
20260831224233 76 22 0.0 0.0 0.00 0.00 0.00 78 1018.1
20260831223728 76 22 0.0 0.0 0.00 0.00 0.00 76 1018.2
20260831223225 77 22 0.0 0.0 0.00 0.00 0.00 73 1018.2
20260831222720 77 22 0.0 0.0 0.00 0.00 0.00 72 1018.3
20260831222216 77 22 0.0 0.0 0.00 0.00 0.00 69 1018.3
20260831221711 77 22 0.0 0.0 0.00 0.00 0.00 70 1018.2
20260831221207 78 22 0.0 0.0 0.00 0.00 0.00 70 1018.2
20260831220701 78 22 0.0 0.0 0.00 0.00 0.00 73 1018.4
20260831220157 78 27 0.0 0.0 0.00 0.00 0.00 69 1018.4
20260831215651 79 297 0.0 0.0 0.00 0.00 0.00 70 1018.4
20260831215147 79 298 0.0 0.0 0.00 0.00 0.00 66 1018.5
20260831214644 79 298 0.0 0.0 0.00 0.00 0.00 68 1018.4
20260831214141 78 298 0.0 0.0 0.00 0.00 0.00 71 1018.6
20260831213637 78 298 0.0 0.0 0.00 0.00 0.00 70 1018.5
20260831213132 78 297 0.0 0.0 0.00 0.00 0.00 72 1018.6
20260831212628 78 297 0.0 0.0 0.00 0.00 0.00 72 1018.7
20260831212124 78 297 0.0 0.0 0.00 0.00 0.00 71 1018.7
20260831211624 78 297 0.0 0.0 0.00 0.00 0.00 69 1018.8
20260831211123 78 297 0.0 0.0 0.00 0.00 0.00 70 1018.8
20260831210618 78 297 0.0 0.0 0.00 0.00 0.00 72 1018.9
20260831210115 78 297 0.0 0.0 0.00 0.00 0.00 72 1018.8
20260831205614 77 297 0.0 0.0 0.00 0.00 0.00 75 1018.9
20260831205110 76 296 0.0 0.0 0.00 0.00 0.00 81 1018.9
20260831204610 76 296 0.0 0.0 0.00 0.00 0.00 82 1018.6
20260831204108 75 296 0.0 0.0 0.00 0.00 0.00 85 1018.8
20260831203608 75 296 0.0 0.0 0.00 0.00 0.00 84 1019.0
20260831203103 75 296 0.0 0.0 0.00 0.00 0.00 83 1018.8
20260831202602 76 296 0.0 0.0 0.00 0.00 0.00 81 1019.0
20260831202101 76 296 0.0 0.0 0.00 0.00 0.00 83 1019.1
20260831201600 76 296 0.0 0.0 0.00 0.00 0.00 83 1019.1
20260831201055 76 296 0.0 0.0 0.00 0.00 0.00 79 1019.1
20260831200551 76 296 0.0 0.0 0.00 0.00 0.00 83 1019.1
20260831200051 76 296 0.0 0.0 0.00 0.00 0.00 80 1019.2
20260831195547 76 296 0.0 0.0 0.00 0.00 0.00 79 1019.1
20260831195042 77 296 0.0 0.0 0.00 0.00 0.00 76 1019.1
20260831194537 77 296 0.0 0.0 0.00 0.00 0.00 80 1019.3
20260831194032 76 296 0.0 0.0 0.00 0.00 0.00 77 1019.2
20260831193527 77 296 0.0 0.0 0.00 0.00 0.00 78 1019.2
20260831193022 78 296 0.0 0.0 0.00 0.00 0.00 75 1019.5
20260831192517 78 296 0.0 0.0 0.00 0.00 0.00 70 1019.4
20260831192013 78 297 0.0 0.0 0.00 0.00 0.00 72 1019.6
20260831191508 78 297 0.0 0.0 0.00 0.00 0.00 72 1019.6
20260831191004 78 297 2.0 2.0 0.00 0.00 0.00 70 1019.8
20260831190459 78 78 1.0 2.0 0.00 0.00 0.00 73 1020.0
20260831185957 78 78 0.0 0.0 0.00 0.00 0.00 73 1019.7
20260831185454 78 78 0.0 0.0 0.00 0.00 0.00 68 1019.7
20260831184954 78 78 0.0 0.0 0.00 0.00 0.00 69 1019.6
20260831184448 78 78 0.0 0.0 0.00 0.00 0.00 70 1019.8
20260831183944 78 78 0.0 0.0 0.00 0.00 0.00 69 1019.9
20260831183443 78 78 0.0 0.0 0.00 0.00 0.00 69 1019.9
20260831182943 78 78 0.0 0.0 0.00 0.00 0.00 70 1019.9
20260831182438 78 78 0.0 0.0 0.00 0.00 0.00 71 1019.7
20260831181933 78 78 0.0 0.0 0.00 0.00 0.00 72 1019.8
20260831181429 78 78 0.0 0.0 0.00 0.00 0.00 72 1019.7
20260831180929 78 78 0.0 0.0 0.00 0.00 0.00 70 1019.9
20260831180423 78 78 0.0 0.0 0.00 0.00 0.00 67 1019.8
20260831175923 78 78 0.0 0.0 0.00 0.00 0.00 70 1019.6
20260831175419 78 78 0.0 0.0 0.00 0.00 0.00 66 1019.8
20260831174915 79 78 0.0 0.0 0.00 0.00 0.00 65 1019.8
20260831174411 79 78 0.0 0.0 0.00 0.00 0.00 64 1019.7
20260831173910 79 78 0.0 0.0 0.00 0.00 0.00 65 1019.9
20260831173409 79 78 2.0 2.0 0.00 0.00 0.00 64 1019.8
20260831172905 78 78 0.0 0.0 0.00 0.00 0.00 64 1020.1
20260831172401 78 78 0.0 0.0 0.00 0.00 0.00 64 1020.0
20260831171900 79 78 0.0 0.0 0.00 0.00 0.00 65 1019.9
20260831171356 79 62 1.0 2.0 0.00 0.00 0.00 66 1019.9
20260831170853 80 332 1.0 2.0 0.00 0.00 0.00 62 1020.1
20260831170349 81 347 0.0 0.0 0.00 0.00 0.00 60 1019.9
20260831165845 80 346 0.0 0.0 0.00 0.00 0.00 64 1020.0
20260831165341 80 344 0.0 0.0 0.00 0.00 0.00 61 1020.0
20260831164837 80 304 0.0 0.0 0.00 0.00 0.00 59 1019.9
20260831164333 80 329 0.0 0.0 0.00 0.00 0.00 60 1020.0
20260831163828 81 3 2.0 2.0 0.00 0.00 0.00 61 1019.8
20260831163324 81 5 2.0 2.0 0.00 0.00 0.00 61 1019.9
20260831162822 80 0 0.0 0.0 0.00 0.00 0.00 62 1020.0
20260831162318 79 0 1.0 2.0 0.00 0.00 0.00 67 1020.0
20260831161816 79 242 0.0 0.0 0.00 0.00 0.00 66 1020.2
20260831161313 80 193 5.0 5.0 0.00 0.00 0.00 64 1020.1
20260831160814 79 90 2.0 2.0 0.00 0.00 0.00 64 1019.9
20260831160308 79 338 0.0 0.0 0.00 0.00 0.00 68 1020.3
20260831155808 78 337 0.0 0.0 0.00 0.00 0.00 70 1020.3
20260831155306 77 338 0.0 0.0 0.00 0.00 0.00 72 1020.3
20260831154759 77 330 3.0 3.0 0.00 0.00 0.00 70 1020.3
20260831154255 77 350 2.0 3.0 0.00 0.00 0.00 71 1020.4
20260831153754 76 352 0.0 0.0 0.00 0.00 0.00 74 1020.2
20260831153249 76 352 0.0 0.0 0.00 0.00 0.00 75 1020.2
20260831152745 76 351 0.0 0.0 0.00 0.00 0.00 76 1020.2
20260831152242 75 351 2.0 2.0 0.00 0.00 0.00 75 1020.1
20260831151741 75 351 0.0 0.0 0.00 0.00 0.00 76 1020.1
20260831151241 75 351 2.0 2.0 0.00 0.00 0.00 77 1020.1
20260831150736 75 351 0.0 0.0 0.00 0.00 0.00 76 1020.2
20260831150231 75 351 2.0 2.0 0.00 0.00 0.00 76 1020.4
20260831145730 75 352 0.0 0.0 0.00 0.00 0.00 76 1020.3
20260831145227 75 352 0.0 0.0 0.00 0.00 0.00 75 1020.3
20260831144722 75 352 2.0 2.0 0.00 0.00 0.00 77 1020.5
20260831144219 75 352 0.0 2.0 0.00 0.00 0.00 76 1020.4
20260831143718 75 352 0.0 0.0 0.00 0.00 0.00 75 1020.4
20260831143214 75 352 0.0 0.0 0.00 0.00 0.00 77 1020.7
20260831142709 75 352 1.0 0.0 0.00 0.00 0.00 76 1020.7
20260831142205 75 352 1.0 2.0 0.00 0.00 0.00 76 1020.5
20260831141703 75 352 1.0 2.0 0.00 0.00 0.00 76 1020.5
20260831141159 75 352 0.0 0.0 0.00 0.00 0.00 75 1020.8
20260831140658 75 352 1.0 2.0 0.00 0.00 0.00 77 1020.4
20260831140153 74 352 1.0 2.0 0.00 0.00 0.00 76 1020.6
20260831135651 75 352 1.0 0.0 0.00 0.00 0.00 77 1020.3
20260831135147 75 352 1.0 2.0 0.00 0.00 0.00 78 1020.4
20260831134643 75 352 0.0 0.0 0.00 0.00 0.00 78 1020.4
20260831134138 74 354 0.0 0.0 0.00 0.00 0.00 78 1020.4
20260831133637 75 354 0.0 0.0 0.00 0.00 0.00 77 1020.3
20260831133132 74 354 0.0 0.0 0.00 0.00 0.00 79 1020.3
20260831132628 73 354 0.0 0.0 0.00 0.00 0.00 82 1020.2
20260831132127 73 354 0.0 0.0 0.00 0.00 0.00 84 1020.1
20260831131622 73 354 0.0 0.0 0.00 0.00 0.00 84 1020.3
20260831131118 72 354 0.0 0.0 0.00 0.00 0.00 84 1020.3
20260831130613 72 354 0.0 0.0 0.00 0.00 0.00 84 1020.2
20260831130109 72 354 0.0 0.0 0.00 0.00 0.00 85 1020.2
20260831125607 72 354 0.0 0.0 0.00 0.00 0.00 85 1020.3
20260831125102 72 354 0.0 0.0 0.00 0.00 0.00 85 1020.2
20260831124559 72 354 0.0 0.0 0.00 0.00 0.00 85 1020.5
20260831124054 72 354 0.0 0.0 0.00 0.00 0.00 86 1020.3
20260831123554 72 354 0.0 0.0 0.00 0.00 0.00 86 1020.3
20260831123048 71 354 0.0 0.0 0.00 0.00 0.00 88 1020.3
20260831122548 71 354 0.0 0.0 0.00 0.00 0.00 88 1020.3
20260831122044 71 354 0.0 0.0 0.00 0.00 0.00 89 1020.4
20260831121544 71 354 0.0 0.0 0.00 0.00 0.00 90 1020.3
20260831121040 71 354 0.0 0.0 0.00 0.00 0.00 91 1020.1
20260831120539 70 354 0.0 0.0 0.00 0.00 0.00 91 1020.2
20260831120035 70 354 0.0 0.0 0.00 0.00 0.00 92 1020.1
20260831115531 70 354 0.0 0.0 0.00 0.00 0.00 92 1020.3
20260831115026 69 354 0.0 0.0 0.00 0.00 0.00 94 1020.2
20260831114525 69 354 0.0 0.0 0.00 0.00 0.00 96 1020.1
20260831114026 69 354 0.0 0.0 0.00 0.00 0.00 97 1020.1
20260831113525 69 354 0.0 0.0 0.00 0.00 0.00 97 1020.1
20260831113021 68 354 0.0 0.0 0.00 0.00 0.00 97 1019.9
20260831112520 68 354 0.0 0.0 0.00 0.00 0.00 97 1019.9
20260831112015 68 354 0.0 0.0 0.00 0.00 0.00 97 1020.0
20260831111511 68 354 0.0 0.0 0.00 0.00 0.00 97 1019.9
20260831111007 68 354 0.0 0.0 0.00 0.00 0.00 97 1019.8
20260831110502 68 354 0.0 0.0 0.00 0.00 0.00 97 1019.7
20260831110001 68 354 0.0 0.0 0.00 0.00 0.00 98 1019.7
20260831105456 68 354 0.0 0.0 0.00 0.00 0.00 98 1019.7
20260831104951 68 354 0.0 0.0 0.00 0.00 0.00 98 1019.7
20260831104447 68 354 0.0 0.0 0.00 0.00 0.00 98 1019.5
20260831103942 68 354 0.0 0.0 0.00 0.00 0.00 98 1019.5
20260831103438 68 354 0.0 0.0 0.00 0.00 0.00 98 1019.5
20260831102933 68 354 0.0 0.0 0.00 0.00 0.00 98 1019.7
20260831102433 68 354 0.0 0.0 0.00 0.00 0.00 98 1019.6
20260831101928 68 354 0.0 0.0 0.00 0.00 0.00 98 1019.4
20260831101423 68 354 0.0 0.0 0.00 0.00 0.00 98 1019.4
20260831100919 68 354 0.0 0.0 0.00 0.00 0.00 98 1019.5
20260831100415 68 354 0.0 0.0 0.00 0.00 0.00 98 1019.2
20260831095909 68 354 0.0 0.0 0.00 0.00 0.00 98 1019.1
20260831095409 68 354 0.0 0.0 0.00 0.00 0.00 98 1019.2
20260831094904 68 354 0.0 0.0 0.00 0.00 0.00 98 1019.0
20260831094400 68 354 0.0 0.0 0.00 0.00 0.00 98 1019.0
20260831093855 68 354 0.0 0.0 0.00 0.00 0.00 98 1019.0
20260831093350 68 354 0.0 0.0 0.00 0.00 0.00 98 1018.9
20260831092847 69 354 0.0 0.0 0.00 0.00 0.00 98 1019.1
20260831092342 69 354 0.0 0.0 0.00 0.00 0.00 98 1019.0
20260831091837 69 354 0.0 0.0 0.00 0.00 0.00 98 1018.8
20260831091333 69 354 0.0 0.0 0.00 0.00 0.00 98 1018.7
20260831090828 69 354 0.0 0.0 0.00 0.00 0.00 98 1018.8
20260831090325 69 354 0.0 0.0 0.00 0.00 0.00 98 1018.9
20260831085821 69 354 0.0 0.0 0.00 0.00 0.00 98 1019.1
20260831085320 69 354 0.0 0.0 0.00 0.00 0.00 98 1018.9
20260831084815 69 354 0.0 0.0 0.00 0.00 0.00 98 1018.8
20260831084311 69 354 0.0 0.0 0.00 0.00 0.00 98 1018.9
20260831083807 69 354 0.0 0.0 0.00 0.00 0.00 98 1019.0
20260831083303 69 354 0.0 0.0 0.00 0.00 0.00 98 1018.9
20260831082801 69 354 0.0 0.0 0.00 0.00 0.00 98 1018.8
20260831082256 69 354 0.0 0.0 0.00 0.00 0.00 98 1018.8
20260831081752 70 354 0.0 0.0 0.00 0.00 0.00 98 1018.8
20260831081248 70 354 0.0 0.0 0.00 0.00 0.00 98 1018.8
20260831080743 70 354 0.0 0.0 0.00 0.00 0.00 98 1019.0
20260831080243 70 354 0.0 0.0 0.00 0.00 0.00 98 1018.9
20260831075739 70 354 0.0 0.0 0.00 0.00 0.00 98 1018.9
20260831075235 70 354 0.0 0.0 0.00 0.00 0.00 98 1018.7
20260831074734 70 354 0.0 0.0 0.00 0.00 0.00 98 1018.7
20260831074233 70 354 0.0 0.0 0.00 0.00 0.00 98 1018.9
20260831073730 70 354 0.0 0.0 0.00 0.00 0.00 98 1019.0
20260831073228 70 354 0.0 0.0 0.00 0.00 0.00 97 1018.9
20260831072723 70 354 0.0 0.0 0.00 0.00 0.00 97 1018.7
20260831072220 71 354 0.0 0.0 0.00 0.00 0.00 97 1019.1
20260831071720 71 354 0.0 0.0 0.00 0.00 0.00 97 1018.8
20260831071214 71 354 0.0 0.0 0.00 0.00 0.00 97 1018.8
20260831070709 71 354 0.0 0.0 0.00 0.00 0.00 97 1018.7
20260831070208 71 354 0.0 0.0 0.00 0.00 0.00 97 1018.6
20260831065708 71 354 0.0 0.0 0.00 0.00 0.00 97 1018.8
20260831065207 71 354 0.0 0.0 0.00 0.00 0.00 97 1018.9
20260831064701 71 354 0.0 0.0 0.00 0.00 0.00 97 1018.9
20260831064157 71 354 0.0 0.0 0.00 0.00 0.00 97 1018.8
20260831063653 70 354 0.0 0.0 0.00 0.00 0.00 97 1019.0
20260831063148 71 354 0.0 0.0 0.00 0.00 0.00 97 1019.1
20260831062648 71 354 0.0 0.0 0.00 0.00 0.00 97 1018.8
20260831062148 71 354 0.0 0.0 0.00 0.00 0.00 97 1018.8
20260831061645 71 354 0.0 0.0 0.00 0.00 0.00 97 1019.0
20260831061142 71 354 0.0 0.0 0.00 0.00 0.00 97 1018.8
20260831060638 71 354 0.0 0.0 0.00 0.00 0.00 97 1019.0
20260831060137 71 354 0.0 0.0 0.00 0.00 0.00 97 1018.6
20260831055637 71 354 0.0 0.0 0.00 0.00 0.00 97 1018.7
20260831055132 71 354 0.0 0.0 0.00 0.00 0.00 97 1018.7
20260831054632 71 354 0.0 0.0 0.00 0.00 0.00 96 1018.6
20260831054131 71 354 0.0 0.0 0.00 0.00 0.00 96 1018.7
20260831053626 71 354 0.0 0.0 0.00 0.00 0.00 96 1018.7
20260831053125 71 354 0.0 0.0 0.00 0.00 0.00 96 1018.9
20260831052624 71 354 0.0 0.0 0.00 0.00 0.00 96 1018.8
20260831052123 71 354 0.0 0.0 0.00 0.00 0.00 96 1018.9
20260831051622 72 354 0.0 0.0 0.00 0.00 0.00 96 1018.8
20260831051121 71 354 0.0 0.0 0.00 0.00 0.00 96 1018.9
20260831050621 71 354 0.0 0.0 0.00 0.00 0.00 95 1018.9
20260831050120 72 354 0.0 0.0 0.00 0.00 0.00 95 1018.8
20260831045620 72 354 0.0 0.0 0.00 0.00 0.00 95 1018.8
20260831045115 72 354 0.0 0.0 0.00 0.00 0.00 95 1019.1
20260831044611 72 354 0.0 0.0 0.00 0.00 0.00 95 1019.1
20260831044106 72 354 0.0 0.0 0.00 0.00 0.00 94 1018.8
20260831043601 72 354 0.0 0.0 0.00 0.00 0.00 94 1018.9
20260831043056 72 354 0.0 0.0 0.00 0.00 0.00 93 1018.8
20260831042555 73 354 0.0 0.0 0.00 0.00 0.00 92 1019.0
20260831042051 73 354 0.0 0.0 0.00 0.00 0.00 92 1019.2
20260831041546 73 354 0.0 0.0 0.00 0.00 0.00 91 1019.3
20260831041045 74 354 0.0 0.0 0.00 0.00 0.00 90 1019.2
20260831040540 74 354 0.0 0.0 0.00 0.00 0.00 89 1019.3
20260831040039 74 354 0.0 0.0 0.00 0.00 0.00 89 1019.2
20260831035537 74 354 0.0 0.0 0.00 0.00 0.00 88 1019.2
20260831035033 74 354 0.0 0.0 0.00 0.00 0.00 88 1019.0
20260831034532 75 355 0.0 2.0 0.00 0.00 0.00 88 1019.2
20260831034027 75 355 1.0 2.0 0.00 0.00 0.00 87 1019.1
20260831033523 75 358 3.0 3.0 0.00 0.00 0.00 86 1018.9
20260831033018 75 340 2.0 2.0 0.00 0.00 0.00 85 1019.1
20260831032518 75 341 2.0 3.0 0.00 0.00 0.00 85 1019.0
20260831032013 75 341 2.0 2.0 0.00 0.00 0.00 86 1019.1
20260831031513 76 340 0.0 0.0 0.00 0.00 0.00 84 1019.0
20260831031012 76 339 0.0 0.0 0.00 0.00 0.00 83 1019.1
20260831030512 76 309 2.0 2.0 0.00 0.00 0.00 83 1018.9
20260831030011 76 29 0.0 0.0 0.00 0.00 0.00 84 1019.1
20260831025509 75 62 2.0 2.0 0.00 0.00 0.00 86 1019.0
20260831025005 75 322 0.0 0.0 0.00 0.00 0.00 89 1019.0
20260831024501 75 330 0.0 0.0 0.00 0.00 0.00 91 1019.1
20260831024000 75 189 0.0 0.0 0.00 0.00 0.00 92 1019.1
20260831023458 75 185 0.0 0.0 0.00 0.00 0.00 93 1019.0
20260831022953 75 241 3.0 3.0 0.00 0.00 0.00 94 1019.1
20260831022452 75 52 0.0 0.0 0.00 0.00 0.00 94 1019.1
20260831021947 75 52 0.0 0.0 0.00 0.00 0.00 94 1019.0
20260831021446 75 50 0.0 0.0 0.00 0.00 0.00 94 1019.1
20260831020942 75 50 2.0 3.0 0.00 0.00 0.00 94 1019.1
20260831020442 75 14 1.0 0.0 0.00 0.00 0.00 93 1019.2
20260831015937 75 0 2.0 2.0 0.00 0.00 0.00 93 1019.1
20260831015434 75 101 0.0 0.0 0.00 0.00 0.00 92 1019.3
20260831014933 76 101 0.0 0.0 0.00 0.00 0.00 92 1018.8
20260831014428 76 101 0.0 0.0 0.00 0.00 0.00 91 1018.8
20260831013924 76 101 0.0 0.0 0.00 0.00 0.00 91 1018.9
20260831013420 76 101 0.0 0.0 0.00 0.00 0.00 91 1019.2
20260831012914 76 101 0.0 0.0 0.00 0.00 0.00 91 1019.0
20260831012415 75 101 0.0 0.0 0.00 0.00 0.00 91 1019.0
20260831011915 75 101 0.0 0.0 0.00 0.00 0.00 91 1018.8
20260831011410 75 101 0.0 0.0 0.00 0.00 0.00 91 1018.7
20260831010906 76 101 0.0 0.0 0.00 0.00 0.00 90 1018.8
20260831010406 76 101 0.0 0.0 0.00 0.00 0.00 89 1018.6